User: anonymous   Login
Location: Olsztyn
(53.7767°N, 20.4765°E)
Time: 19:52:12
(UTC+02:00)
Language:

Envisat - Orbit

View from above orbital plane
View from above orbital plane
View from above satellite
View from above satellite

Ground track
Ground track

The orbit data is extracted from the following two-line orbital elements,

1 27386U 02009A   24111.92101255  .00000541  00000-0  19050-3 0  9999
2 27386  98.2775  75.0168 0001224  84.4186 339.2887 14.38545563160341
Epoch (UTC): 20 April 2024 22:06:15
Eccentricity: 0.0001224
inclination: 98.2775°
perigee height: 762 km
apogee height: 764 km
right ascension of ascending node: 75.0168°
argument of perigee: 84.4186°
revolutions per day: 14.38545563
mean anomaly at epoch: 339.2887°
orbit number at epoch: 16034

The dashed part of the orbit path shows where the satellite is in the earth's shadow,  

DLR